Location: Myrnam
(53.6612°N, 111.2289°W)
Time: 20:57:58
(UTC+00:00)

CUBESAT XI-V - Visible Passes

Search period start: 29 November 2023 00:00
Search period end: 09 December 2023 00:00
Orbit: 662 x 683 km, 98.2° (Epoch: 28 November)

Date Brightness Start Highest point End Pass type
(mag) Time Alt. Az. Time Alt. Az. Time Alt. Az.
30 Nov ? 00:20:09 10° NNW 00:22:46 15° NW 00:25:24 10° W visible
01 Dec ? 23:49:07 10° N 23:52:49 24° WNW 23:56:30 10° WSW visible
03 Dec ? 00:23:20 10° NNW 00:25:48 14° NW 00:28:17 10° W visible
04 Dec ? 23:52:13 10° N 23:55:50 23° WNW 23:59:25 10° WSW visible
06 Dec ? 00:26:28 10° NNW 00:28:47 14° NW 00:31:06 10° W visible
07 Dec ? 23:55:15 10° N 23:58:46 22° WNW 00:02:16 10° WSW visible
